sat.trackr.live / text

‹ back to catalog

STARLINK-34746

NORAD 64847 · 2025-152F

PAYLOAD ACTIVE UNKNOWN

§ Identity

Operator
Country
US
Launch date
2025-07-19
Launch site
AFWTR
Launch vehicle
Mass (kg)
RCS (m²)

Purposes: comms

External: N2YO · Heavens-Above · Gunter

§ Orbital elements

Epoch: 2026-05-25T03:40:12.523008Z

Period
95.64 min
Inclination
97.4506°
Eccentricity
0.0001153
Mean motion
15.05659969 rev/d
Perigee alt
548.7 km
Apogee alt
550.3 km
Semi-major
6,927.6 km
B*
2.9876e-4
RAAN
0.5044°
Arg perigee
119.7851°
Mean anomaly
240.3491°
Rev number
4,692

§ Raw data

STARLINK-347461 64847U 25152F   26145.15292272  .00004256  00000+0  29876-3 0  99932 64847  97.4506   0.5044 0001153 119.7851 240.3491 15.05659969 46926

JSON: /api/v1/satellites/64847 · /tle

For live sub-satellite position, see the globe view (requires WebGL).

§ Visibility from observer

Set your observer location to see the next 7 days of passes ≥ 10°. The values pass through the URL so the page stays shareable.

No JS? Fill the form by hand. The geolocation button needs JavaScript.